| time (UTC) | temp F | wind direction | speed knots | gust knots | rain 1hr in | rain 24hr in | rain mn in | humidity % | barometer mb |
| 20260507010403 | 64 | 127 | 1.7 | 1.7 | 0.00 | 0.00 | 0.00 | 80 | 1012.7 |
| 20260507005900 | 64 | 97 | 0.9 | 2.6 | 0.00 | 0.00 | 0.00 | 80 | 1012.8 |
| 20260507005357 | 64 | 130 | 2.6 | 3.5 | 0.00 | 0.00 | 0.00 | 80 | 1012.9 |
| 20260507004853 | 64 | 64 | 0.0 | 1.7 | 0.00 | 0.00 | 0.00 | 80 | 1012.9 |
| 20260507004350 | 64 | 134 | 1.7 | 3.5 | 0.00 | 0.00 | 0.00 | 80 | 1013.1 |
| 20260507003848 | 64 | 55 | 0.9 | 1.7 | 0.00 | 0.00 | 0.00 | 79 | 1012.9 |
| 20260507003343 | 64 | 137 | 1.7 | 1.7 | 0.00 | 0.00 | 0.00 | 79 | 1012.3 |
| 20260507002838 | 64 | 103 | 0.9 | 2.6 | 0.00 | 0.00 | 0.00 | 79 | 1012.3 |
| 20260507002334 | 64 | 126 | 0.9 | 2.6 | 0.00 | 0.00 | 0.00 | 78 | 1012.7 |
| 20260507001832 | 64 | 156 | 0.9 | 3.5 | 0.00 | 0.00 | 0.00 | 79 | 1012.3 |
| 20260507001329 | 64 | 149 | 0.0 | 2.6 | 0.00 | 0.00 | 0.00 | 78 | 1012.2 |
| 20260507000825 | 64 | 108 | 0.9 | 2.6 | 0.00 | 0.00 | 0.00 | 79 | 1012.4 |
| 20260507000321 | 64 | 120 | 0.0 | 2.6 | 0.00 | 0.00 | 0.00 | 78 | 1012.5 |
| 20260506235818 | 64 | 193 | 0.0 | 2.6 | 0.00 | 0.00 | 0.00 | 79 | 1012.3 |
| 20260506235314 | 64 | 70 | 1.7 | 2.6 | 0.00 | 0.00 | 0.00 | 78 | 1012.6 |
| 20260506234810 | 64 | 132 | 3.5 | 3.5 | 0.00 | 0.00 | 0.00 | 79 | 1012.4 |
| 20260506234308 | 64 | 133 | 1.7 | 2.6 | 0.00 | 0.00 | 0.00 | 78 | 1012.1 |
| 20260506233806 | 64 | 136 | 0.0 | 2.6 | 0.00 | 0.00 | 0.00 | 79 | 1012.4 |
| 20260506233302 | 64 | 128 | 1.7 | 3.5 | 0.00 | 0.00 | 0.00 | 78 | 1012.7 |
| 20260506232759 | 64 | 129 | 1.7 | 2.6 | 0.00 | 0.00 | 0.00 | 78 | 1012.2 |
| 20260506232254 | 64 | 131 | 1.7 | 1.7 | 0.00 | 0.00 | 0.00 | 79 | 1012.1 |
| 20260506231751 | 64 | 139 | 0.9 | 1.7 | 0.00 | 0.00 | 0.00 | 79 | 1012.1 |
| 20260506231249 | 64 | 151 | 1.7 | 3.5 | 0.00 | 0.00 | 0.00 | 79 | 1012.0 |
| 20260506230745 | 64 | 149 | 2.6 | 4.3 | 0.00 | 0.00 | 0.00 | 77 | 1012.1 |
| 20260506230243 | 64 | 118 | 0.9 | 3.5 | 0.00 | 0.00 | 0.00 | 78 | 1012.0 |
| 20260506225739 | 64 | 117 | 2.6 | 2.6 | 0.00 | 0.00 | 0.00 | 79 | 1012.1 |
| 20260506225236 | 64 | 117 | 1.7 | 3.5 | 0.00 | 0.00 | 0.00 | 77 | 1012.0 |
| 20260506224732 | 64 | 62 | 1.7 | 3.5 | 0.00 | 0.00 | 0.00 | 79 | 1012.3 |
| 20260506224230 | 64 | 105 | 4.3 | 4.3 | 0.00 | 0.00 | 0.00 | 78 | 1012.2 |
| 20260506223726 | 64 | 64 | 0.9 | 2.6 | 0.00 | 0.00 | 0.00 | 77 | 1011.9 |
| 20260506223222 | 64 | 133 | 1.7 | 3.5 | 0.00 | 0.00 | 0.00 | 77 | 1012.3 |
| 20260506222719 | 64 | 6 | 0.0 | 2.6 | 0.00 | 0.00 | 0.00 | 77 | 1012.0 |
| 20260506222214 | 64 | 89 | 0.0 | 1.7 | 0.00 | 0.00 | 0.00 | 77 | 1012.3 |
| 20260506221712 | 64 | 131 | 2.6 | 3.5 | 0.00 | 0.00 | 0.00 | 78 | 1012.1 |
| 20260506221210 | 64 | 110 | 0.9 | 5.2 | 0.00 | 0.00 | 0.00 | 77 | 1011.9 |
| 20260506220707 | 64 | 141 | 1.7 | 2.6 | 0.00 | 0.00 | 0.00 | 77 | 1012.1 |
| 20260506220202 | 64 | 42 | 1.7 | 2.6 | 0.00 | 0.00 | 0.00 | 78 | 1011.9 |
| 20260506215659 | 65 | 358 | 1.7 | 4.3 | 0.00 | 0.00 | 0.00 | 75 | 1012.0 |
| 20260506215154 | 66 | 151 | 1.7 | 2.6 | 0.00 | 0.00 | 0.00 | 76 | 1012.3 |
| 20260506214651 | 66 | 61 | 1.7 | 4.3 | 0.00 | 0.00 | 0.00 | 75 | 1012.1 |
| 20260506214149 | 66 | 120 | 2.6 | 3.5 | 0.00 | 0.00 | 0.00 | 75 | 1012.1 |
| 20260506213647 | 65 | 73 | 0.0 | 3.5 | 0.00 | 0.00 | 0.00 | 75 | 1012.1 |
| 20260506213144 | 65 | 37 | 1.7 | 3.5 | 0.00 | 0.00 | 0.00 | 75 | 1011.8 |
| 20260506212642 | 66 | 28 | 1.7 | 2.6 | 0.00 | 0.00 | 0.00 | 75 | 1012.0 |
| 20260506212142 | 66 | 37 | 1.7 | 2.6 | 0.00 | 0.00 | 0.00 | 75 | 1012.0 |
| 20260506211638 | 66 | 86 | 1.7 | 3.5 | 0.00 | 0.00 | 0.00 | 76 | 1011.7 |
| 20260506211135 | 66 | 74 | 0.9 | 3.5 | 0.00 | 0.00 | 0.00 | 75 | 1012.0 |
| 20260506210632 | 66 | 179 | 1.7 | 3.5 | 0.00 | 0.00 | 0.00 | 76 | 1012.0 |
| 20260506210128 | 66 | 96 | 1.7 | 4.3 | 0.00 | 0.00 | 0.00 | 75 | 1012.0 |
| 20260506205625 | 66 | 119 | 3.5 | 3.5 | 0.00 | 0.00 | 0.00 | 76 | 1012.1 |
| 20260506205120 | 66 | 107 | 0.0 | 4.3 | 0.00 | 0.00 | 0.00 | 75 | 1012.0 |
| 20260506204618 | 67 | 81 | 0.0 | 2.6 | 0.00 | 0.00 | 0.00 | 75 | 1012.3 |
| 20260506204115 | 67 | 155 | 0.9 | 3.5 | 0.00 | 0.00 | 0.00 | 76 | 1012.1 |
| 20260506203613 | 67 | 155 | 2.6 | 3.5 | 0.00 | 0.00 | 0.00 | 76 | 1012.1 |
| 20260506203109 | 67 | 76 | 0.9 | 3.5 | 0.00 | 0.00 | 0.00 | 76 | 1012.1 |
| 20260506202608 | 67 | 93 | 1.7 | 1.7 | 0.00 | 0.00 | 0.00 | 77 | 1012.3 |
| 20260506202103 | 68 | 143 | 1.7 | 3.5 | 0.00 | 0.00 | 0.00 | 75 | 1012.3 |
| 20260506201601 | 68 | 44 | 0.9 | 3.5 | 0.00 | 0.00 | 0.00 | 75 | 1012.2 |
| 20260506201057 | 69 | 157 | 1.7 | 3.5 | 0.00 | 0.00 | 0.00 | 76 | 1012.0 |
| 20260506200554 | 69 | 141 | 2.6 | 2.6 | 0.00 | 0.00 | 0.00 | 76 | 1012.0 |
| 20260506200051 | 69 | 40 | 0.0 | 3.5 | 0.00 | 0.00 | 0.00 | 76 | 1012.1 |
| 20260506195547 | 69 | 46 | 0.0 | 2.6 | 0.00 | 0.00 | 0.00 | 77 | 1011.8 |
| 20260506195043 | 69 | 317 | 0.0 | 3.5 | 0.00 | 0.00 | 0.00 | 77 | 1012.1 |
| 20260506194541 | 69 | 136 | 2.6 | 3.5 | 0.00 | 0.00 | 0.00 | 78 | 1011.9 |
| 20260506194037 | 69 | 112 | 1.7 | 3.5 | 0.00 | 0.00 | 0.00 | 77 | 1011.8 |
| 20260506193535 | 69 | 133 | 2.6 | 3.5 | 0.00 | 0.00 | 0.00 | 77 | 1011.9 |
| 20260506193032 | 69 | 116 | 0.9 | 3.5 | 0.00 | 0.00 | 0.00 | 77 | 1011.8 |
| 20260506192529 | 69 | 134 | 1.7 | 5.2 | 0.00 | 0.00 | 0.00 | 79 | 1012.1 |
| 20260506192025 | 69 | 104 | 0.9 | 3.5 | 0.00 | 0.00 | 0.00 | 78 | 1011.7 |
| 20260506191522 | 69 | 157 | 0.9 | 4.3 | 0.00 | 0.00 | 0.00 | 79 | 1011.8 |
| 20260506191018 | 70 | 134 | 3.5 | 5.2 | 0.00 | 0.00 | 0.00 | 77 | 1011.9 |
| 20260506190515 | 71 | 124 | 0.9 | 3.5 | 0.00 | 0.00 | 0.00 | 76 | 1011.9 |
| 20260506190012 | 72 | 152 | 2.6 | 4.3 | 0.00 | 0.00 | 0.00 | 75 | 1011.4 |
| 20260506185509 | 73 | 113 | 1.7 | 3.5 | 0.00 | 0.00 | 0.00 | 75 | 1011.7 |
| 20260506185006 | 75 | 351 | 1.7 | 3.5 | 0.00 | 0.00 | 0.00 | 74 | 1011.9 |
| 20260506184503 | 76 | 143 | 1.7 | 4.3 | 0.00 | 0.00 | 0.00 | 73 | 1011.7 |
| 20260506184000 | 77 | 212 | 0.9 | 2.6 | 0.00 | 0.00 | 0.00 | 73 | 1011.6 |
| 20260506183455 | 77 | 164 | 0.9 | 3.5 | 0.00 | 0.00 | 0.00 | 72 | 1011.6 |
| 20260506182953 | 77 | 231 | 1.7 | 4.3 | 0.00 | 0.00 | 0.00 | 71 | 1011.4 |
| 20260506182450 | 77 | 44 | 1.7 | 2.6 | 0.00 | 0.00 | 0.00 | 70 | 1011.3 |
| 20260506181947 | 77 | 145 | 0.0 | 3.5 | 0.00 | 0.00 | 0.00 | 68 | 1011.5 |
| 20260506181445 | 77 | 186 | 0.9 | 2.6 | 0.00 | 0.00 | 0.00 | 70 | 1011.0 |
| 20260506180941 | 77 | 34 | 4.3 | 4.3 | 0.00 | 0.00 | 0.00 | 68 | 1011.3 |
| 20260506180438 | 77 | 194 | 0.9 | 2.6 | 0.00 | 0.00 | 0.00 | 70 | 1011.6 |
| 20260506175935 | 76 | 43 | 1.7 | 3.5 | 0.00 | 0.00 | 0.00 | 72 | 1011.6 |
| 20260506175432 | 76 | 245 | 0.9 | 1.7 | 0.00 | 0.00 | 0.00 | 72 | 1011.4 |
| 20260506174928 | 75 | 127 | 0.9 | 2.6 | 0.00 | 0.00 | 0.00 | 71 | 1011.3 |
| 20260506174426 | 76 | 34 | 1.7 | 3.5 | 0.00 | 0.00 | 0.00 | 70 | 1011.3 |
| 20260506173923 | 75 | 89 | 0.0 | 2.6 | 0.00 | 0.00 | 0.00 | 73 | 1010.9 |
| 20260506173420 | 73 | 130 | 1.7 | 3.5 | 0.00 | 0.00 | 0.00 | 76 | 1011.0 |
| 20260506172917 | 72 | 73 | 0.9 | 3.5 | 0.00 | 0.00 | 0.00 | 74 | 1011.0 |
| 20260506172414 | 73 | 20 | 1.7 | 3.5 | 0.00 | 0.00 | 0.00 | 72 | 1011.3 |
| 20260506171911 | 74 | 149 | 1.7 | 3.5 | 0.00 | 0.00 | 0.00 | 71 | 1011.2 |
| 20260506171408 | 73 | 240 | 0.0 | 1.7 | 0.00 | 0.00 | 0.00 | 70 | 1011.4 |
| 20260506170906 | 73 | 159 | 0.0 | 2.6 | 0.00 | 0.00 | 0.00 | 73 | 1011.4 |
| 20260506170402 | 71 | 155 | 1.7 | 3.5 | 0.00 | 0.00 | 0.00 | 76 | 1011.4 |
| 20260506165901 | 70 | 121 | 0.9 | 5.2 | 0.00 | 0.00 | 0.00 | 76 | 1011.4 |
| 20260506165359 | 71 | 121 | 1.7 | 3.5 | 0.00 | 0.00 | 0.00 | 75 | 1011.3 |
| 20260506164854 | 70 | 107 | 3.5 | 3.5 | 0.00 | 0.00 | 0.00 | 78 | 1011.5 |
| 20260506164351 | 70 | 128 | 2.6 | 2.6 | 0.00 | 0.00 | 0.00 | 77 | 1011.5 |
| 20260506163849 | 69 | 151 | 0.9 | 2.6 | 0.00 | 0.00 | 0.00 | 80 | 1011.5 |
| 20260506163343 | 68 | 112 | 1.7 | 3.5 | 0.00 | 0.00 | 0.00 | 81 | 1011.7 |
| 20260506162839 | 68 | 151 | 0.9 | 4.3 | 0.00 | 0.00 | 0.00 | 82 | 1011.8 |
| 20260506162337 | 66 | 110 | 0.9 | 3.5 | 0.00 | 0.00 | 0.00 | 84 | 1012.3 |
| 20260506161834 | 66 | 130 | 0.9 | 1.7 | 0.00 | 0.00 | 0.00 | 87 | 1012.3 |
| 20260506161331 | 65 | 103 | 1.7 | 1.7 | 0.02 | 0.00 | 0.00 | 89 | 1012.5 |
| 20260506160829 | 64 | 150 | 1.7 | 3.5 | 0.02 | 0.00 | 0.00 | 87 | 1012.6 |
| 20260506160326 | 65 | 82 | 1.7 | 2.6 | 0.00 | 0.00 | 0.00 | 84 | 1013.5 |
| 20260506155825 | 66 | 354 | 0.0 | 3.5 | 0.00 | 0.00 | 0.00 | 83 | 1014.1 |
| 20260506155321 | 67 | 175 | 0.0 | 3.5 | 0.00 | 0.00 | 0.00 | 83 | 1013.5 |
| 20260506153433 | 68 | 262 | 0.9 | 4.3 | 0.00 | 0.00 | 0.00 | 82 | 1011.7 |
| 20260506152930 | 69 | 75 | 1.7 | 4.3 | 0.00 | 0.00 | 0.00 | 82 | 1011.8 |
| 20260506152427 | 70 | 82 | 0.9 | 4.3 | 0.00 | 0.00 | 0.00 | 81 | 1011.6 |
| 20260506151926 | 71 | 137 | 2.6 | 5.2 | 0.00 | 0.00 | 0.00 | 81 | 1011.3 |
| 20260506151422 | 73 | 130 | 1.7 | 3.5 | 0.00 | 0.00 | 0.00 | 79 | 1010.9 |
| 20260506150920 | 76 | 331 | 0.9 | 3.5 | 0.00 | 0.00 | 0.00 | 76 | 1011.0 |
| 20260506150416 | 78 | 52 | 0.0 | 1.7 | 0.00 | 0.00 | 0.00 | 83 | 1011.0 |
| 20260506145913 | 78 | 124 | 0.0 | 0.9 | 0.00 | 0.00 | 0.00 | 83 | 1010.6 |
| 20260506145409 | 78 | 119 | 0.0 | 1.7 | 0.00 | 0.00 | 0.00 | 83 | 1010.7 |
| 20260506144907 | 78 | 62 | 1.7 | 2.6 | 0.00 | 0.00 | 0.00 | 82 | 1010.3 |
| 20260506144403 | 78 | 73 | 1.7 | 2.6 | 0.00 | 0.00 | 0.00 | 83 | 1010.3 |
| 20260506143902 | 78 | 130 | 1.7 | 3.5 | 0.00 | 0.00 | 0.00 | 83 | 1010.0 |
| 20260506143358 | 78 | 130 | 0.9 | 1.7 | 0.00 | 0.00 | 0.00 | 83 | 1009.7 |
| 20260506142857 | 78 | 143 | 1.7 | 3.5 | 0.00 | 0.00 | 0.00 | 83 | 1010.0 |
| 20260506142354 | 78 | 118 | 0.9 | 2.6 | 0.00 | 0.00 | 0.00 | 83 | 1009.9 |
| 20260506141852 | 78 | 121 | 1.7 | 3.5 | 0.00 | 0.00 | 0.00 | 83 | 1009.5 |
| 20260506141350 | 78 | 144 | 2.6 | 2.6 | 0.00 | 0.00 | 0.00 | 84 | 1009.3 |
| 20260506140848 | 78 | 129 | 1.7 | 2.6 | 0.00 | 0.00 | 0.00 | 85 | 1009.3 |
| 20260506140344 | 78 | 81 | 1.7 | 1.7 | 0.00 | 0.00 | 0.00 | 86 | 1009.7 |
| 20260506135841 | 77 | 128 | 1.7 | 1.7 | 0.00 | 0.00 | 0.00 | 87 | 1009.6 |
| 20260506135338 | 77 | 131 | 1.7 | 1.7 | 0.00 | 0.00 | 0.00 | 88 | 1009.8 |
| 20260506134834 | 76 | 69 | 1.7 | 1.7 | 0.00 | 0.00 | 0.00 | 88 | 1009.7 |
| 20260506134331 | 76 | 149 | 1.7 | 1.7 | 0.00 | 0.00 | 0.00 | 87 | 1009.3 |
| 20260506133828 | 76 | 142 | 0.9 | 2.6 | 0.00 | 0.00 | 0.00 | 87 | 1009.2 |
| 20260506133325 | 77 | 129 | 0.0 | 1.7 | 0.00 | 0.00 | 0.00 | 87 | 1009.2 |
| 20260506132822 | 77 | 119 | 1.7 | 1.7 | 0.00 | 0.00 | 0.00 | 87 | 1009.1 |
| 20260506132319 | 76 | 113 | 0.9 | 1.7 | 0.00 | 0.00 | 0.00 | 87 | 1009.1 |
| 20260506131817 | 76 | 66 | 1.7 | 1.7 | 0.00 | 0.00 | 0.00 | 87 | 1009.3 |
| 20260506131313 | 76 | 124 | 1.7 | 1.7 | 0.00 | 0.00 | 0.00 | 88 | 1009.0 |
| 20260506130810 | 76 | 129 | 2.6 | 2.6 | 0.00 | 0.00 | 0.00 | 88 | 1009.0 |
| 20260506130306 | 76 | 111 | 0.9 | 2.6 | 0.00 | 0.00 | 0.00 | 88 | 1008.8 |
| 20260506125804 | 76 | 124 | 1.7 | 2.6 | 0.00 | 0.00 | 0.00 | 88 | 1008.7 |
| 20260506125305 | 75 | 47 | 1.7 | 1.7 | 0.00 | 0.00 | 0.00 | 89 | 1008.7 |
| 20260506124801 | 75 | 95 | 0.0 | 1.7 | 0.00 | 0.00 | 0.00 | 89 | 1008.7 |
| 20260506124257 | 75 | 128 | 1.7 | 2.6 | 0.00 | 0.00 | 0.00 | 90 | 1008.6 |
| 20260506123755 | 75 | 123 | 0.9 | 2.6 | 0.00 | 0.00 | 0.00 | 90 | 1008.3 |
| 20260506123253 | 75 | 125 | 1.7 | 2.6 | 0.00 | 0.00 | 0.00 | 91 | 1008.6 |
| 20260506122750 | 75 | 89 | 0.0 | 1.7 | 0.00 | 0.00 | 0.00 | 91 | 1008.4 |
| 20260506122247 | 75 | 143 | 1.7 | 1.7 | 0.00 | 0.00 | 0.00 | 91 | 1008.4 |
| 20260506121745 | 75 | 122 | 1.7 | 1.7 | 0.00 | 0.00 | 0.00 | 91 | 1008.5 |
| 20260506121242 | 75 | 132 | 0.9 | 1.7 | 0.00 | 0.00 | 0.00 | 91 | 1008.7 |
| 20260506120739 | 75 | 111 | 1.7 | 1.7 | 0.00 | 0.00 | 0.00 | 91 | 1008.6 |
| 20260506120237 | 75 | 122 | 0.0 | 0.9 | 0.00 | 0.00 | 0.00 | 91 | 1008.8 |
| 20260506115734 | 75 | 108 | 0.0 | 1.7 | 0.00 | 0.00 | 0.00 | 91 | 1008.7 |
| 20260506115232 | 75 | 93 | 0.0 | 1.7 | 0.00 | 0.00 | 0.00 | 91 | 1008.6 |
| 20260506114730 | 75 | 75 | 0.0 | 1.7 | 0.00 | 0.00 | 0.00 | 91 | 1008.6 |
| 20260506114227 | 75 | 84 | 0.9 | 1.7 | 0.00 | 0.00 | 0.00 | 91 | 1008.7 |
| 20260506113726 | 75 | 109 | 0.0 | 0.9 | 0.00 | 0.00 | 0.00 | 91 | 1008.7 |
| 20260506113223 | 75 | 122 | 0.0 | 0.9 | 0.00 | 0.00 | 0.00 | 91 | 1008.6 |
| 20260506112719 | 75 | 117 | 0.9 | 1.7 | 0.00 | 0.00 | 0.00 | 90 | 1008.6 |
| 20260506112217 | 75 | 81 | 0.9 | 1.7 | 0.00 | 0.00 | 0.00 | 90 | 1008.7 |
| 20260506111714 | 75 | 50 | 0.9 | 0.9 | 0.00 | 0.00 | 0.00 | 90 | 1008.7 |
| 20260506111212 | 75 | 84 | 0.0 | 0.9 | 0.00 | 0.00 | 0.00 | 90 | 1008.7 |
| 20260506110708 | 75 | 70 | 0.9 | 0.9 | 0.00 | 0.00 | 0.00 | 90 | 1008.8 |
| 20260506110206 | 75 | 93 | 0.0 | 0.9 | 0.00 | 0.00 | 0.00 | 90 | 1008.6 |
| 20260506105703 | 75 | 127 | 0.0 | 0.9 | 0.00 | 0.00 | 0.00 | 90 | 1008.6 |
| 20260506105159 | 75 | 133 | 0.9 | 1.7 | 0.00 | 0.00 | 0.00 | 89 | 1008.5 |
| 20260506104657 | 75 | 85 | 0.9 | 0.9 | 0.00 | 0.00 | 0.00 | 89 | 1008.6 |
| 20260506104155 | 75 | 67 | 0.9 | 1.7 | 0.00 | 0.00 | 0.00 | 89 | 1008.4 |
| 20260506103652 | 75 | 94 | 0.0 | 0.9 | 0.00 | 0.00 | 0.00 | 89 | 1008.4 |
| 20260506103149 | 75 | 75 | 0.0 | 0.9 | 0.00 | 0.00 | 0.00 | 89 | 1008.4 |
| 20260506102647 | 75 | 108 | 0.9 | 1.7 | 0.00 | 0.00 | 0.00 | 89 | 1008.3 |
| 20260506102144 | 75 | 67 | 0.9 | 0.9 | 0.00 | 0.00 | 0.00 | 89 | 1008.3 |
| 20260506101641 | 75 | 95 | 0.0 | 1.7 | 0.00 | 0.00 | 0.00 | 89 | 1008.2 |
| 20260506101138 | 75 | 76 | 0.0 | 0.9 | 0.00 | 0.00 | 0.00 | 89 | 1008.0 |
| 20260506100636 | 75 | 144 | 0.0 | 0.9 | 0.00 | 0.00 | 0.00 | 89 | 1008.2 |
| 20260506100134 | 75 | 98 | 1.7 | 1.7 | 0.00 | 0.00 | 0.00 | 89 | 1008.1 |
| 20260506095632 | 75 | 127 | 0.9 | 1.7 | 0.00 | 0.00 | 0.00 | 89 | 1008.0 |
| 20260506095128 | 75 | 180 | 0.0 | 1.7 | 0.00 | 0.00 | 0.00 | 89 | 1008.1 |
| 20260506094626 | 75 | 109 | 0.9 | 3.5 | 0.00 | 0.00 | 0.00 | 89 | 1008.0 |
| 20260506094124 | 75 | 154 | 1.7 | 3.5 | 0.00 | 0.00 | 0.00 | 89 | 1007.8 |
| 20260506093622 | 75 | 121 | 2.6 | 4.3 | 0.00 | 0.00 | 0.00 | 89 | 1007.9 |
| 20260506093119 | 75 | 136 | 1.7 | 4.3 | 0.00 | 0.00 | 0.00 | 89 | 1007.8 |
| 20260506092617 | 75 | 174 | 0.0 | 3.5 | 0.00 | 0.00 | 0.00 | 88 | 1007.6 |
| 20260506092114 | 76 | 89 | 0.0 | 3.5 | 0.00 | 0.00 | 0.00 | 88 | 1007.8 |
| 20260506091612 | 76 | 119 | 0.0 | 3.5 | 0.00 | 0.00 | 0.00 | 87 | 1007.4 |
| 20260506091109 | 76 | 192 | 1.7 | 3.5 | 0.00 | 0.00 | 0.00 | 87 | 1007.6 |
| 20260506090607 | 76 | 71 | 0.9 | 5.2 | 0.00 | 0.00 | 0.00 | 87 | 1007.4 |
| 20260506085600 | 76 | 174 | 0.9 | 5.2 | 0.00 | 0.00 | 0.00 | 87 | 1007.2 |
| 20260506085056 | 76 | 174 | 0.0 | 4.3 | 0.00 | 0.00 | 0.00 | 86 | 1007.2 |
| 20260506084553 | 76 | 135 | 2.6 | 2.6 | 0.00 | 0.00 | 0.00 | 86 | 1007.5 |
| 20260506084049 | 76 | 205 | 0.0 | 1.7 | 0.00 | 0.00 | 0.00 | 86 | 1007.3 |
| 20260506083546 | 76 | 186 | 2.6 | 3.5 | 0.00 | 0.00 | 0.00 | 86 | 1007.4 |
| 20260506083043 | 76 | 148 | 1.7 | 2.6 | 0.00 | 0.00 | 0.00 | 86 | 1007.2 |
| 20260506082540 | 76 | 76 | 0.0 | 1.7 | 0.00 | 0.00 | 0.00 | 86 | 1007.5 |
| 20260506082036 | 76 | 152 | 1.7 | 3.5 | 0.00 | 0.00 | 0.00 | 86 | 1007.4 |
| 20260506081534 | 76 | 162 | 3.5 | 5.2 | 0.00 | 0.00 | 0.00 | 86 | 1007.4 |
| 20260506081031 | 76 | 73 | 1.7 | 4.3 | 0.00 | 0.00 | 0.00 | 86 | 1007.5 |
| 20260506080529 | 76 | 164 | 0.9 | 4.3 | 0.00 | 0.00 | 0.00 | 86 | 1007.6 |
| 20260506073513 | 76 | 217 | 0.9 | 7.8 | 0.00 | 0.00 | 0.00 | 84 | 1007.8 |
| 20260506073010 | 76 | 124 | 5.2 | 5.2 | 0.00 | 0.00 | 0.00 | 84 | 1007.8 |
| 20260506072507 | 77 | 125 | 2.6 | 3.5 | 0.00 | 0.00 | 0.00 | 84 | 1007.8 |
| 20260506072004 | 76 | 126 | 2.6 | 6.1 | 0.00 | 0.00 | 0.00 | 84 | 1007.8 |
| 20260506071502 | 77 | 56 | 0.9 | 3.5 | 0.00 | 0.00 | 0.00 | 84 | 1007.8 |
| 20260506070959 | 76 | 200 | 1.7 | 5.2 | 0.00 | 0.00 | 0.00 | 84 | 1007.7 |
| 20260506070456 | 76 | 141 | 3.5 | 7.8 | 0.00 | 0.00 | 0.00 | 84 | 1007.8 |
| 20260506062433 | 76 | 198 | 1.7 | 5.2 | 0.00 | 0.00 | 0.00 | 86 | 1007.8 |
| 20260506061929 | 76 | 144 | 0.9 | 4.3 | 0.00 | 0.00 | 0.00 | 86 | 1007.9 |
| 20260506061426 | 76 | 59 | 1.7 | 2.6 | 0.00 | 0.00 | 0.00 | 86 | 1007.7 |
| 20260506060924 | 76 | 180 | 1.7 | 5.2 | 0.00 | 0.00 | 0.00 | 86 | 1007.9 |
| 20260506060422 | 76 | 145 | 3.5 | 4.3 | 0.00 | 0.00 | 0.00 | 85 | 1007.9 |
| 20260506051354 | 76 | 127 | 1.7 | 5.2 | 0.00 | 0.00 | 0.00 | 86 | 1007.6 |
| 20260506050851 | 76 | 128 | 1.7 | 2.6 | 0.00 | 0.00 | 0.00 | 86 | 1007.7 |
| 20260506050349 | 77 | 72 | 0.9 | 5.2 | 0.00 | 0.00 | 0.00 | 86 | 1007.9 |
| 20260506044839 | 77 | 140 | 1.7 | 7.8 | 0.00 | 0.00 | 0.00 | 86 | 1007.9 |
| 20260506044337 | 77 | 192 | 1.7 | 3.5 | 0.00 | 0.00 | 0.00 | 86 | 1007.8 |
| 20260506043834 | 77 | 144 | 1.7 | 3.5 | 0.00 | 0.00 | 0.00 | 86 | 1007.8 |
| 20260506043331 | 77 | 98 | 0.9 | 2.6 | 0.00 | 0.00 | 0.00 | 86 | 1007.6 |
| 20260506042829 | 77 | 100 | 0.0 | 4.3 | 0.00 | 0.00 | 0.00 | 86 | 1007.8 |
| 20260506042328 | 77 | 72 | 2.6 | 5.2 | 0.00 | 0.00 | 0.00 | 86 | 1007.9 |
| 20260506041826 | 77 | 132 | 0.9 | 1.7 | 0.00 | 0.00 | 0.00 | 86 | 1007.8 |
| 20260506041323 | 77 | 118 | 0.9 | 1.7 | 0.00 | 0.00 | 0.00 | 85 | 1007.6 |
| 20260506040820 | 77 | 176 | 1.7 | 1.7 | 0.00 | 0.00 | 0.00 | 85 | 1007.6 |
| 20260506040317 | 77 | 177 | 1.7 | 3.5 | 0.00 | 0.00 | 0.00 | 85 | 1007.6 |
| 20260506035814 | 77 | 122 | 2.6 | 3.5 | 0.00 | 0.00 | 0.00 | 85 | 1007.6 |
| 20260506035311 | 77 | 140 | 1.7 | 3.5 | 0.00 | 0.00 | 0.00 | 85 | 1007.5 |
| 20260506034808 | 77 | 121 | 0.9 | 3.5 | 0.00 | 0.00 | 0.00 | 84 | 1007.6 |
| 20260506034305 | 77 | 68 | 0.9 | 2.6 | 0.00 | 0.00 | 0.00 | 84 | 1007.2 |
| 20260506033802 | 77 | 191 | 1.7 | 1.7 | 0.00 | 0.00 | 0.00 | 84 | 1007.2 |
| 20260506033259 | 78 | 132 | 1.7 | 2.6 | 0.00 | 0.00 | 0.00 | 83 | 1007.0 |
| 20260506032756 | 78 | 128 | 1.7 | 2.6 | 0.00 | 0.00 | 0.00 | 83 | 1007.2 |
| 20260506032253 | 78 | 80 | 1.7 | 2.6 | 0.00 | 0.00 | 0.00 | 83 | 1007.3 |
| 20260506031749 | 78 | 134 | 0.9 | 1.7 | 0.00 | 0.00 | 0.00 | 82 | 1007.2 |
| 20260506031247 | 78 | 120 | 0.0 | 3.5 | 0.00 | 0.00 | 0.00 | 82 | 1007.2 |
| 20260506030745 | 78 | 111 | 0.9 | 2.6 | 0.00 | 0.00 | 0.00 | 81 | 1007.0 |
| 20260506030242 | 78 | 133 | 2.6 | 5.2 | 0.00 | 0.00 | 0.00 | 81 | 1006.9 |
| 20260506025739 | 78 | 158 | 1.7 | 4.3 | 0.00 | 0.00 | 0.00 | 81 | 1006.7 |
| 20260506025235 | 78 | 132 | 1.7 | 3.5 | 0.00 | 0.00 | 0.00 | 80 | 1006.7 |
| 20260506024732 | 78 | 102 | 0.0 | 2.6 | 0.00 | 0.00 | 0.00 | 80 | 1006.7 |
| 20260506024229 | 78 | 140 | 1.7 | 3.5 | 0.00 | 0.00 | 0.00 | 80 | 1006.6 |
| 20260506023725 | 79 | 120 | 0.9 | 1.7 | 0.00 | 0.00 | 0.00 | 79 | 1006.6 |
| 20260506023223 | 79 | 114 | 1.7 | 1.7 | 0.00 | 0.00 | 0.00 | 79 | 1006.5 |
| 20260506022719 | 79 | 98 | 0.0 | 1.7 | 0.00 | 0.00 | 0.00 | 79 | 1006.5 |
| 20260506022217 | 79 | 124 | 1.7 | 3.5 | 0.00 | 0.00 | 0.00 | 79 | 1006.4 |
| 20260506021715 | 79 | 156 | 0.0 | 2.6 | 0.00 | 0.00 | 0.00 | 79 | 1006.3 |
| 20260506021212 | 79 | 141 | 0.0 | 2.6 | 0.00 | 0.00 | 0.00 | 78 | 1006.0 |
| 20260506020708 | 79 | 131 | 0.9 | 3.5 | 0.00 | 0.00 | 0.00 | 78 | 1006.0 |
| 20260506020206 | 79 | 135 | 0.9 | 2.6 | 0.00 | 0.00 | 0.00 | 78 | 1006.0 |
| 20260506015704 | 79 | 139 | 0.0 | 2.6 | 0.00 | 0.00 | 0.00 | 78 | 1006.0 |
| 20260506015201 | 79 | 145 | 1.7 | 3.5 | 0.00 | 0.00 | 0.00 | 77 | 1005.8 |
| 20260506014658 | 80 | 117 | 1.7 | 1.7 | 0.00 | 0.00 | 0.00 | 77 | 1005.8 |
| 20260506014154 | 80 | 131 | 0.0 | 2.6 | 0.00 | 0.00 | 0.00 | 76 | 1005.7 |
| 20260506013652 | 80 | 133 | 1.7 | 2.6 | 0.00 | 0.00 | 0.00 | 76 | 1005.5 |
| 20260506013149 | 80 | 113 | 0.0 | 1.7 | 0.00 | 0.00 | 0.00 | 75 | 1005.6 |
| 20260506012645 | 80 | 133 | 1.7 | 1.7 | 0.00 | 0.00 | 0.00 | 75 | 1005.6 |
| 20260506012142 | 80 | 137 | 1.7 | 3.5 | 0.00 | 0.00 | 0.00 | 75 | 1005.5 |
| 20260506011639 | 81 | 132 | 2.6 | 4.3 | 0.00 | 0.00 | 0.00 | 75 | 1005.5 |
| 20260506011135 | 81 | 112 | 1.7 | 2.6 | 0.00 | 0.00 | 0.00 | 74 | 1005.4 |
| 20260506010634 | 81 | 138 | 1.7 | 2.6 | 0.00 | 0.00 | 0.00 | 73 | 1005.5 |